This is the latest recevied weather packets stored in our database for station/object DB0OHA-13. If no packets are shown the sender has not sent any weather packets the latest 10 day(s).
| Time | Temp. | Humidity | Pressure | Rain* | Wind** | Luminosity | Snow |
|---|---|---|---|---|---|---|---|
| 1777780874 | 12.78° C | 63% | 1013.7 hPa | 0 mm | - | 8 W/m² | - |
| 1777780274 | 12.78° C | 63% | 1013.7 hPa | 0 mm | - | 4 W/m² | - |
| 1777779073 | 12.78° C | 63% | 1013.6 hPa | 0 mm | - | 0 W/m² | - |
| 1777778473 | 12.78° C | 63% | 1013.6 hPa | 0 mm | - | 0 W/m² | - |
| 1777777873 | 12.78° C | 63% | 1013.5 hPa | 0 mm | - | 0 W/m² | - |
| 1777776673 | 12.78° C | 62% | 1013.6 hPa | 0 mm | - | 0 W/m² | - |
| 1777776073 | 12.78° C | 62% | 1013.6 hPa | 0 mm | - | 0 W/m² | - |
| 1777775473 | 12.78° C | 62% | 1013.7 hPa | 0 mm | - | 0 W/m² | - |
| 1777774872 | 12.78° C | 62% | 1013.8 hPa | 0 mm | - | 0 W/m² | - |
| 1777774272 | 12.78° C | 62% | 1013.8 hPa | 0 mm | - | 0 W/m² | - |
| 1777773673 | 13.33° C | 62% | 1014 hPa | 0 mm | - | 0 W/m² | - |
| 1777773073 | 13.33° C | 62% | 1014.1 hPa | 0 mm | - | 0 W/m² | - |
| 1777772472 | 13.33° C | 62% | 1014.1 hPa | 0 mm | - | 0 W/m² | - |
| 1777771872 | 13.33° C | 62% | 1014.2 hPa | 0 mm | - | 0 W/m² | - |
| 1777771272 | 13.33° C | 63% | 1014.3 hPa | 0 mm | - | 0 W/m² | - |
| 1777770672 | 13.33° C | 63% | 1014.5 hPa | 0 mm | - | 0 W/m² | - |
| 1777769472 | 13.33° C | 62% | 1014.6 hPa | 0 mm | - | 0 W/m² | - |
| 1777768872 | 13.89° C | 62% | 1014.8 hPa | 0 mm | - | 0 W/m² | - |
| 1777768272 | 13.89° C | 59% | 1014.6 hPa | 0 mm | - | 0 W/m² | - |
| 1777767672 | 13.89° C | 60% | 1014.5 hPa | 0 mm | - | 0 W/m² | - |
| 1777766471 | 14.44° C | 58% | 1014.7 hPa | 0 mm | - | 0 W/m² | - |
| 1777765871 | 15° C | 56% | 1014.8 hPa | 0 mm | - | 0 W/m² | - |
| 1777765272 | 14.44° C | 58% | 1014.8 hPa | 0 mm | - | 0 W/m² | - |
| 1777764671 | 14.44° C | 58% | 1014.8 hPa | 0 mm | - | 0 W/m² | - |
| 1777764071 | 14.44° C | 59% | 1014.8 hPa | 0 mm | - | 0 W/m² | - |
* Rain latest hour (hover to see other rain measurements)
** Current wind speed in m/s (hover to see current wind gust speed)